Weather History for K2WX

Nearest airport to NA, NA.

See history from more local stations
Change the Weather History Date:

Friday, July 26, 2013

  Actual Average Record
Temperature  
Mean Temperature 60 °F 72 °F  
Max Temperature 72 °F 86 °F 97 °F (2006)
Min Temperature 47 °F 59 °F 47 °F (2013)
Degree Days  
Heating Degree Days 5 0  
Month to date heating degree days 7 21  
Since 1 June heating degree days 96 135  
Since 1 July heating degree days 7 21  
Cooling Degree Days 0 8  
Month to date cooling degree days 210 169  
Year to date cooling degree days 266 237  
Since 1 June cooling degree days 256 231  
Growing Degree Days 8 (Base 50)    
Moisture  
Dew Point 44 °F    
Average Humidity 61    
Maximum Humidity 93    
Minimum Humidity 29    
Precipitation  
Precipitation 0.00 in 0.06 in 0.22 in (2001)
Month to date precipitation 0.98 1.76  
Year to date precipitation 6.84 10.43  
Sea Level Pressure  
Sea Level Pressure 30.19 in    
Wind  
Wind Speed 9 mph (ENE)    
Max Wind Speed 21 mph    
Max Gust Speed 24 mph    
T = Trace of Precipitation, MM = Missing Value Source: NWS Daily Summary

Daily Weather History Graph

Daily Weather History Graph

Search for Another Location

Airport or City:

Trip Planner

Search our weather history database for the weather conditions in past years. The results will help you decide how hot, cold, wet, or windy it might be!

Date:

Astronomy

Jul. 26, 2013 Rise Set
Actual Time 5:31 AM MDT 8:29 PM MDT
Civil Twilight 4:56 AM MDT 9:04 PM MDT
Nautical Twilight 4:11 AM MDT 9:48 PM MDT
Astronomical Twilight 3:17 AM MDT 10:42 PM MDT
Moon 10:25 PM MDT (7/26) 10:27 AM MDT (7/26)
Length of Visible Light 16h 08m
Length of Day
14h 58m
Waning Gibbous, 79% of the Moon is Illuminated
Jul 26
Waning Gibbous
Jul 29
Last Quarter
Aug 6
New
Aug 14
First Quarter
Aug 20
Full

Hourly Weather History & Observations

Time (MDT) Temp. Dew Point Humidity Pressure Visibility Wind Dir Wind Speed Gust Speed Precip Events Conditions
12:56 AM 53.1 °F 45.0 °F 74% 30.16 in - NNE 11.5 mph - N/A   Unknown
1:56 AM 54.0 °F 44.1 °F 69% 30.17 in - North 6.9 mph - N/A   Unknown
2:56 AM 50.0 °F 44.1 °F 80% 30.18 in - Calm Calm - N/A   Unknown
3:56 AM 51.1 °F 43.0 °F 74% 30.18 in - NE 4.6 mph - N/A   Unknown
4:56 AM 48.9 °F 43.0 °F 80% 30.19 in - NNE 5.8 mph - N/A   Unknown
5:56 AM 46.9 °F 44.1 °F 90% 30.21 in - NE 10.4 mph - N/A   Unknown
6:56 AM 48.0 °F 46.0 °F 93% 30.23 in - ENE 10.4 mph - N/A   Unknown
7:56 AM 48.9 °F 46.9 °F 93% 30.25 in - ENE 8.1 mph - N/A   Unknown
8:56 AM 52.0 °F 46.9 °F 83% 30.26 in - ENE 9.2 mph - N/A   Unknown
9:56 AM 57.9 °F 46.9 °F 67% 30.26 in - East 11.5 mph - N/A   Unknown
10:56 AM 60.1 °F 46.0 °F 60% 30.27 in - East 10.4 mph 16.1 mph N/A   Unknown
11:56 AM 62.1 °F 46.0 °F 56% 30.24 in - ENE 6.9 mph - N/A   Unknown
12:56 PM 62.1 °F 44.1 °F 52% 30.23 in - ENE 8.1 mph - N/A   Unknown
1:56 PM 66.9 °F 45.0 °F 45% 30.20 in - ENE 9.2 mph - N/A   Unknown
2:56 PM 69.1 °F 42.1 °F 38% 30.19 in - Variable 4.6 mph - N/A   Unknown
3:56 PM 71.1 °F 39.9 °F 32% 30.16 in - Calm Calm - N/A   Unknown
4:56 PM 70.0 °F 39.9 °F 33% 30.15 in - Variable 6.9 mph - N/A   Unknown
5:56 PM 71.1 °F 37.9 °F 30% 30.14 in - ENE 10.4 mph 18.4 mph N/A   Unknown
6:56 PM 69.1 °F 43.0 °F 39% 30.14 in - ENE 15.0 mph - N/A   Unknown
7:56 PM 64.9 °F 43.0 °F 45% 30.15 in - ENE 12.7 mph - N/A   Unknown
8:56 PM 60.1 °F 43.0 °F 53% 30.17 in - ENE 12.7 mph - N/A   Unknown
9:56 PM 55.9 °F 43.0 °F 62% 30.17 in - East 12.7 mph - N/A   Unknown
10:56 PM 54.0 °F 43.0 °F 66% 30.18 in - East 10.4 mph - N/A   Unknown
11:56 PM 52.0 °F 43.0 °F 71% 30.18 in - East 12.7 mph - N/A   Unknown